QPF
0.02 0.02 0.01 0.01 0.01 0.02 0.01 0.01 0.01 0.02 0.02 0.01 0.01 0.01 0.01 0.01 0.01 0.01 0.01 0.01 0.01 0.01 0.01 0.01 0.02 0.02 0.02 0.02 0.02 0.02 0.02 0.02 0.03 0.02 0.03 0.05 0.06 0.07 0.09 0.10 0.10 0.07 0.07 0.07
0.02 0.02 0.02 0.00 0.01 0.01 0.01 0.01 0.01 0.02 0.02 0.01 0.02 0.02 0.02 0.02 0.02 0.01 0.01 0.01 0.01 0.01 0.01 0.01 0.02 0.02 0.02 0.02 0.02 0.02 0.02 0.02 0.02 0.03 0.04 0.05 0.06 0.08 0.08 0.07 0.08 0.09 0.09 0.08
0.02 0.02 0.02 0.01 0.01 0.01 0.02 0.02 0.01 0.03 0.03 0.01 0.01 0.02 0.03 0.02 0.01 0.01 0.01 0.01 0.01 0.01 0.01 0.01 0.02 0.02 0.01 0.02 0.02 0.02 0.02 0.03 0.03 0.04 0.05 0.06 0.07 0.08 0.10 0.12 0.16 0.16 0.13 0.10
0.01 0.01 0.01 0.01 0.01 0.01 0.01 0.02 0.02 0.03 0.02 0.01 0.01 0.02 0.02 0.01 0.01 0.00 0.01 0.01 0.01 0.01 0.01 0.01 0.01 0.01 0.01 0.02 0.02 0.02 0.02 0.02 0.03 0.04 0.06 0.08 0.08 0.09 0.11 0.13 0.13 0.12 0.11 0.11
0.01 0.01 0.01 0.01 0.01 0.01 0.01 0.02 0.03 0.03 0.01 0.02 0.01 0.02 0.02 0.06 0.04 0.01 0.01 0.01 0.01 0.01 0.02 0.02 0.02 0.02 0.02 0.02 0.01 0.01 0.01 0.02 0.03 0.04 0.06 0.08 0.09 0.07 0.06 0.04 0.04 0.04 0.03 0.03
0.01 0.01 0.02 0.02 0.01 0.02 0.01 0.01 0.01 0.01 0.01 0.01 0.02 0.03 0.03 0.04 0.04 0.03 0.03 0.03 0.02 0.02 0.02 0.03 0.03 0.02 0.02 0.01 0.01 0.01 0.01 0.02 0.03 0.04 0.04 0.03 0.03 0.03 0.01 0.01 0.02 0.03 0.03 0.02
0.01 0.01 0.02 0.01 0.01 0.01 0.03 0.02 0.01 0.01 0.01 0.02 0.02 0.02 0.02 0.03 0.04 0.05 0.07 0.08 0.07 0.04 0.03 0.03 0.02 0.02 0.02 0.02 0.02 0.02 0.03 0.03 0.04 0.05 0.04 0.03 0.02 0.02 0.01 0.01 0.01 0.01 0.02 0.02
0.01 0.02 0.02 0.01 0.01 0.02 0.02 0.01 0.02 0.02 0.02 0.02 0.02 0.01 0.01 0.02 0.02 0.04 0.10 0.11 0.12 0.08 0.05 0.03 0.02 0.02 0.04 0.04 0.05 0.05 0.05 0.05 0.04 0.03 0.02 0.02 0.01 0.01 0.02 0.02 0.02 0.01 0.01 0.02
0.01 0.01 0.02 0.03 0.05 0.05 0.03 0.02 0.03 0.03 0.02 0.02 0.03 0.02 0.01 0.01 0.01 0.01 0.03 0.05 0.08 0.10 0.08 0.07 0.05 0.05 0.06 0.07 0.08 0.08 0.07 0.05 0.03 0.02 0.01 0.01 0.01 0.01 0.02 0.02 0.02 0.01 0.02 0.02
0.01 0.01 0.02 0.02 0.02 0.02 0.02 0.02 0.02 0.02 0.04 0.04 0.05 0.04 0.02 0.02 0.02 0.02 0.02 0.02 0.02 0.04 0.07 0.06 0.06 0.06 0.06 0.07 0.07 0.05 0.04 0.03 0.02 0.01 0.01 0.01 0.02 0.02 0.02 0.02 0.02 0.03 0.03 0.03
0.03 0.03 0.02 0.02 0.03 0.03 0.03 0.02 0.02 0.02 0.05 0.05 0.04 0.04 0.03 0.04 0.04 0.03 0.02 0.02 0.02 0.03 0.04 0.04 0.05 0.07 0.06 0.05 0.03 0.03 0.02 0.02 0.02 0.02 0.02 0.02 0.01 0.02 0.02 0.03 0.03 0.03 0.04 0.03
0.04 0.05 0.04 0.03 0.03 0.03 0.04 0.05 0.03 0.03 0.03 0.03 0.03 0.04 0.05 0.08 0.10 0.07 0.04 0.03 0.03 0.03 0.03 0.03 0.04 0.06 0.04 0.02 0.01 0.01 0.01 0.01 0.02 0.02 0.03 0.04 0.02 0.03 0.03 0.03 0.03 0.03 0.03 0.03
0.06 0.06 0.05 0.04 0.04 0.04 0.03 0.03 0.03 0.03 0.03 0.04 0.03 0.03 0.06 0.14 0.16 0.11 0.06 0.05 0.04 0.03 0.04 0.04 0.04 0.03 0.02 0.01 0.01 0.01 0.01 0.01 0.01 0.02 0.03 0.03 0.03 0.03 0.03 0.03 0.03 0.02 0.02 0.02
0.03 0.06 0.06 0.04 0.04 0.04 0.03 0.03 0.03 0.03 0.03 0.03 0.03 0.05 0.05 0.12 0.16 0.09 0.05 0.04 0.03 0.03 0.04 0.04 0.03 0.01 0.01 0.01 0.01 0.01 0.00 0.01 0.01 0.01 0.02 0.03 0.03 0.04 0.04 0.03 0.03 0.02 0.02 0.02
0.01 0.02 0.03 0.02 0.03 0.04 0.03 0.03 0.03 0.02 0.02 0.02 0.02 0.06 0.08 0.08 0.09 0.07 0.04 0.04 0.03 0.02 0.02 0.02 0.02 0.01 0.01 0.01 0.01 0.01 0.00 0.01 0.01 0.01 0.02 0.03 0.03 0.03 0.03 0.02 0.03 0.03 0.02 0.02
0.01 0.01 0.01 0.02 0.03 0.03 0.03 0.02 0.02 0.03 0.02 0.02 0.02 0.05 0.09 0.07 0.07 0.06 0.04 0.04 0.03 0.02 0.02 0.01 0.01 0.01 0.01 0.01 0.01 0.01 0.01 0.01 0.01 0.01 0.02 0.03 0.04 0.04 0.04 0.03 0.03 0.03 0.02 0.02
0.06 0.04 0.03 0.03 0.04 0.03 0.03 0.02 0.02 0.03 0.03 0.01 0.02 0.03 0.04 0.05 0.04 0.02 0.02 0.02 0.02 0.01 0.01 0.01 0.01 0.01 0.00 0.01 0.01 0.01 0.00 0.01 0.01 0.01 0.02 0.03 0.05 0.05 0.04 0.04 0.03 0.03 0.03 0.03
0.09 0.07 0.04 0.05 0.06 0.04 0.03 0.02 0.01 0.01 0.01 0.01 0.01 0.02 0.03 0.02 0.01 0.01 0.01 0.01 0.01 0.01 0.01 0.01 0.01 0.01 0.00 0.01 0.01 0.01 0.01 0.01 0.01 0.01 0.02 0.03 0.05 0.07 0.07 0.06 0.04 0.03 0.03 0.04
0.07 0.05 0.03 0.05 0.05 0.03 0.04 0.05 0.03 0.02 0.02 0.02 0.02 0.03 0.05 0.03 0.02 0.02 0.01 0.01 0.01 0.01 0.01 0.01 0.01 0.00 0.00 0.01 0.01 0.02 0.02 0.01 0.01 0.01 0.01 0.03 0.04 0.05 0.05 0.04 0.03 0.04 0.04 0.03
0.05 0.03 0.03 0.04 0.03 0.02 0.02 0.04 0.05 0.03 0.02 0.02 0.02 0.02 0.04 0.03 0.03 0.03 0.03 0.03 0.02 0.01 0.01 0.01 0.00 0.00 0.00 0.01 0.01 0.01 0.01 0.01 0.00 0.00 0.00 0.01 0.01 0.01 0.02 0.03 0.03 0.04 0.04 0.04
0.03 0.03 0.02 0.02 0.02 0.01 0.02 0.02 0.03 0.03 0.04 0.03 0.03 0.02 0.02 0.03 0.04 0.04 0.03 0.04 0.03 0.03 0.02 0.01 0.01 0.01 0.01 0.01 0.01 0.01 0.02 0.01 0.01 0.01 0.01 0.02 0.01 0.01 0.02 0.03 0.04 0.04 0.04 0.04
0.04 0.02 0.02 0.02 0.01 0.01 0.01 0.01 0.02 0.02 0.04 0.06 0.06 0.05 0.03 0.03 0.03 0.03 0.03 0.03 0.03 0.03 0.02 0.02 0.02 0.02 0.02 0.02 0.01 0.01 0.01 0.01 0.01 0.01 0.01 0.02 0.03 0.03 0.03 0.05 0.05 0.05 0.05 0.04
0.04 0.03 0.03 0.02 0.02 0.02 0.02 0.02 0.03 0.03 0.03 0.04 0.05 0.06 0.05 0.03 0.04 0.04 0.04 0.03 0.02 0.02 0.01 0.01 0.01 0.01 0.01 0.01 0.01 0.01 0.01 0.01 0.01 0.01 0.01 0.02 0.03 0.05 0.05 0.06 0.07 0.06 0.05 0.04
0.03 0.03 0.03 0.03 0.02 0.02 0.02 0.03 0.02 0.03 0.04 0.05 0.03 0.02 0.03 0.03 0.04 0.05 0.03 0.02 0.02 0.01 0.01 0.01 0.01 0.01 0.01 0.01 0.01 0.01 0.01 0.01 0.01 0.01 0.02 0.02 0.02 0.04 0.05 0.06 0.05 0.04 0.03 0.03
0.02 0.03 0.03 0.03 0.03 0.03 0.03 0.03 0.03 0.04 0.04 0.05 0.05 0.03 0.02 0.02 0.02 0.02 0.02 0.01 0.01 0.01 0.01 0.01 0.01 0.01 0.01 0.00 0.00 0.00 0.00 0.01 0.01 0.01 0.02 0.03 0.03 0.05 0.05 0.04 0.03 0.03 0.03 0.03
0.02 0.02 0.03 0.03 0.03 0.04 0.05 0.05 0.05 0.04 0.04 0.04 0.04 0.05 0.04 0.03 0.02 0.02 0.02 0.02 0.02 0.02 0.02 0.02 0.02 0.02 0.01 0.01 0.01 0.01 0.00 0.00 0.00 0.01 0.02 0.03 0.03 0.03 0.03 0.03 0.03 0.03 0.03 0.03
0.01 0.02 0.03 0.04 0.04 0.04 0.03 0.03 0.04 0.04 0.03 0.02 0.03 0.04 0.04 0.03 0.03 0.03 0.03 0.04 0.04 0.03 0.04 0.04 0.04 0.03 0.02 0.02 0.02 0.01 0.01 0.01 0.01 0.01 0.01 0.01 0.02 0.02 0.02 0.03 0.03 0.03 0.03 0.03
MSLP
1014.14 1014.35 1014.56 1014.77 1014.97 1015.14 1015.24 1015.27 1015.20 1015.04 1014.82 1014.56 1014.30 1014.08 1013.94 1013.89 1013.93 1014.03 1014.17 1014.32 1014.45 1014.53 1014.56 1014.54 1014.49 1014.42 1014.36 1014.30 1014.26 1014.24 1014.21 1014.16 1014.09 1013.98 1013.84 1013.68 1013.51 1013.34 1013.20 1013.09 1013.00 1012.94 1012.90 1012.87
1014.56 1014.79 1014.96 1015.07 1015.13 1015.12 1015.06 1014.94 1014.77 1014.57 1014.36 1014.17 1014.02 1013.92 1013.90 1013.93 1014.01 1014.10 1014.20 1014.28 1014.32 1014.33 1014.30 1014.25 1014.20 1014.15 1014.13 1014.13 1014.14 1014.16 1014.15 1014.10 1014.02 1013.88 1013.70 1013.49 1013.28 1013.08 1012.90 1012.76 1012.66 1012.58 1012.53 1012.49
1014.97 1015.20 1015.34 1015.38 1015.34 1015.21 1015.02 1014.79 1014.55 1014.33 1014.14 1014.00 1013.93 1013.92 1013.97 1014.05 1014.14 1014.22 1014.26 1014.27 1014.23 1014.16 1014.07 1013.99 1013.92 1013.90 1013.90 1013.94 1013.97 1014.00 1013.99 1013.93 1013.81 1013.62 1013.40 1013.14 1012.89 1012.64 1012.44 1012.27 1012.15 1012.06 1011.99 1011.94
1015.34 1015.54 1015.64 1015.63 1015.51 1015.30 1015.04 1014.74 1014.46 1014.22 1014.05 1013.95 1013.93 1013.98 1014.08 1014.18 1014.27 1014.32 1014.32 1014.26 1014.15 1014.02 1013.88 1013.77 1013.70 1013.66 1013.67 1013.70 1013.74 1013.75 1013.71 1013.61 1013.44 1013.20 1012.91 1012.60 1012.30 1012.02 1011.79 1011.60 1011.46 1011.36 1011.29 1011.23
1015.60 1015.75 1015.79 1015.72 1015.55 1015.30 1014.99 1014.67 1014.38 1014.14 1013.99 1013.93 1013.95 1014.03 1014.14 1014.26 1014.34 1014.37 1014.33 1014.23 1014.08 1013.91 1013.74 1013.60 1013.50 1013.46 1013.45 1013.46 1013.46 1013.43 1013.34 1013.17 1012.93 1012.63 1012.28 1011.93 1011.58 1011.28 1011.02 1010.82 1010.67 1010.57 1010.49 1010.42
1015.71 1015.76 1015.73 1015.60 1015.40 1015.12 1014.81 1014.50 1014.22 1014.01 1013.89 1013.86 1013.91 1014.02 1014.14 1014.27 1014.34 1014.36 1014.30 1014.18 1014.01 1013.82 1013.64 1013.48 1013.37 1013.30 1013.26 1013.23 1013.18 1013.08 1012.92 1012.68 1012.37 1012.00 1011.61 1011.21 1010.83 1010.50 1010.23 1010.03 1009.88 1009.77 1009.69 1009.62
1015.59 1015.53 1015.42 1015.25 1015.03 1014.76 1014.47 1014.20 1013.96 1013.80 1013.72 1013.73 1013.81 1013.94 1014.08 1014.21 1014.28 1014.30 1014.24 1014.12 1013.95 1013.76 1013.57 1013.41 1013.28 1013.18 1013.11 1013.02 1012.91 1012.74 1012.51 1012.20 1011.83 1011.41 1010.97 1010.54 1010.15 1009.81 1009.54 1009.33 1009.18 1009.06 1008.98 1008.90
1015.24 1015.07 1014.90 1014.70 1014.48 1014.24 1014.01 1013.80 1013.64 1013.55 1013.52 1013.58 1013.70 1013.85 1014.00 1014.14 1014.22 1014.23 1014.18 1014.07 1013.92 1013.74 1013.56 1013.39 1013.25 1013.12 1013.00 1012.86 1012.69 1012.46 1012.16 1011.80 1011.38 1010.92 1010.46 1010.01 1009.61 1009.27 1009.00 1008.78 1008.63 1008.51 1008.42 1008.34
1014.70 1014.46 1014.24 1014.04 1013.85 1013.67 1013.52 1013.40 1013.33 1013.32 1013.36 1013.47 1013.62 1013.80 1013.96 1014.10 1014.19 1014.21 1014.17 1014.07 1013.93 1013.76 1013.59 1013.42 1013.26 1013.10 1012.93 1012.74 1012.51 1012.22 1011.87 1011.47 1011.02 1010.55 1010.08 1009.64 1009.24 1008.90 1008.62 1008.41 1008.25 1008.12 1008.01 1007.92
1014.07 1013.79 1013.57 1013.39 1013.25 1013.16 1013.10 1013.08 1013.11 1013.18 1013.31 1013.46 1013.65 1013.84 1014.01 1014.15 1014.24 1014.26 1014.22 1014.13 1013.99 1013.83 1013.65 1013.46 1013.28 1013.08 1012.87 1012.63 1012.34 1012.01 1011.63 1011.20 1010.74 1010.27 1009.81 1009.37 1008.99 1008.66 1008.38 1008.16 1007.98 1007.83 1007.71 1007.60
1013.46 1013.19 1012.99 1012.86 1012.80 1012.80 1012.84 1012.92 1013.05 1013.20 1013.39 1013.59 1013.80 1013.99 1014.16 1014.28 1014.36 1014.37 1014.32 1014.22 1014.08 1013.91 1013.72 1013.51 1013.28 1013.04 1012.79 1012.49 1012.16 1011.80 1011.39 1010.95 1010.49 1010.03 1009.58 1009.17 1008.79 1008.46 1008.18 1007.95 1007.75 1007.58 1007.43 1007.30
1013.01 1012.77 1012.63 1012.57 1012.58 1012.67 1012.80 1012.97 1013.17 1013.38 1013.61 1013.83 1014.04 1014.22 1014.37 1014.47 1014.52 1014.51 1014.44 1014.33 1014.17 1013.97 1013.75 1013.51 1013.24 1012.96 1012.65 1012.31 1011.94 1011.54 1011.12 1010.68 1010.23 1009.79 1009.36 1008.96 1008.60 1008.27 1007.98 1007.72 1007.50 1007.30 1007.14 1007.00
1012.78 1012.60 1012.52 1012.53 1012.62 1012.77 1012.97 1013.19 1013.43 1013.67 1013.90 1014.12 1014.31 1014.46 1014.57 1014.63 1014.65 1014.61 1014.52 1014.38 1014.20 1013.98 1013.73 1013.45 1013.14 1012.81 1012.46 1012.08 1011.68 1011.26 1010.82 1010.39 1009.95 1009.52 1009.12 1008.74 1008.38 1008.05 1007.75 1007.48 1007.23 1007.00 1006.81 1006.66
1012.80 1012.68 1012.66 1012.73 1012.87 1013.06 1013.29 1013.54 1013.78 1014.01 1014.22 1014.39 1014.53 1014.64 1014.70 1014.71 1014.69 1014.62 1014.50 1014.34 1014.14 1013.90 1013.63 1013.32 1012.98 1012.62 1012.23 1011.82 1011.40 1010.96 1010.53 1010.10 1009.69 1009.28 1008.90 1008.54 1008.19 1007.86 1007.55 1007.26 1006.98 1006.74 1006.53 1006.36
1013.03 1012.98 1013.00 1013.11 1013.27 1013.48 1013.70 1013.92 1014.13 1014.32 1014.46 1014.58 1014.65 1014.69 1014.69 1014.66 1014.60 1014.50 1014.37 1014.20 1013.99 1013.74 1013.46 1013.14 1012.79 1012.40 1012.00 1011.58 1011.16 1010.73 1010.31 1009.90 1009.51 1009.13 1008.78 1008.43 1008.10 1007.78 1007.46 1007.16 1006.86 1006.60 1006.36 1006.18
1013.40 1013.39 1013.45 1013.57 1013.74 1013.92 1014.12 1014.29 1014.43 1014.54 1014.61 1014.64 1014.64 1014.61 1014.55 1014.48 1014.38 1014.27 1014.13 1013.97 1013.77 1013.53 1013.26 1012.95 1012.61 1012.23 1011.83 1011.42 1011.01 1010.61 1010.21 1009.84 1009.48 1009.15 1008.83 1008.52 1008.20 1007.89 1007.58 1007.26 1006.96 1006.67 1006.42 1006.22
1013.81 1013.83 1013.90 1014.03 1014.18 1014.34 1014.47 1014.58 1014.64 1014.66 1014.65 1014.59 1014.51 1014.41 1014.30 1014.19 1014.08 1013.96 1013.83 1013.68 1013.51 1013.31 1013.07 1012.80 1012.48 1012.14 1011.77 1011.40 1011.02 1010.65 1010.30 1009.97 1009.67 1009.38 1009.10 1008.82 1008.54 1008.25 1007.95 1007.64 1007.32 1007.01 1006.73 1006.50
1014.16 1014.20 1014.30 1014.42 1014.55 1014.66 1014.74 1014.78 1014.77 1014.70 1014.60 1014.46 1014.31 1014.15 1014.00 1013.86 1013.74 1013.63 1013.52 1013.41 1013.28 1013.13 1012.94 1012.71 1012.45 1012.16 1011.84 1011.51 1011.18 1010.87 1010.58 1010.30 1010.05 1009.82 1009.59 1009.36 1009.11 1008.84 1008.56 1008.25 1007.92 1007.60 1007.28 1007.01
1014.41 1014.47 1014.57 1014.69 1014.80 1014.88 1014.92 1014.89 1014.82 1014.68 1014.51 1014.31 1014.10 1013.90 1013.72 1013.56 1013.44 1013.35 1013.27 1013.20 1013.12 1013.02 1012.89 1012.72 1012.52 1012.28 1012.03 1011.76 1011.49 1011.24 1011.00 1010.79 1010.59 1010.40 1010.22 1010.03 1009.82 1009.58 1009.30 1009.00 1008.67 1008.32 1007.98 1007.65
1014.53 1014.61 1014.72 1014.84 1014.94 1015.00 1015.00 1014.94 1014.82 1014.64 1014.41 1014.17 1013.92 1013.70 1013.50 1013.35 1013.23 1013.16 1013.12 1013.08 1013.05 1013.00 1012.93 1012.82 1012.68 1012.50 1012.31 1012.10 1011.88 1011.68 1011.49 1011.32 1011.17 1011.03 1010.88 1010.72 1010.54 1010.31 1010.05 1009.74 1009.40 1009.03 1008.65 1008.27
1014.55 1014.64 1014.77 1014.90 1015.00 1015.05 1015.03 1014.95 1014.80 1014.59 1014.34 1014.08 1013.82 1013.58 1013.38 1013.23 1013.13 1013.07 1013.06 1013.06 1013.07 1013.07 1013.04 1012.98 1012.89 1012.77 1012.62 1012.45 1012.28 1012.12 1011.96 1011.82 1011.70 1011.58 1011.45 1011.30 1011.12 1010.90 1010.64 1010.32 1009.97 1009.57 1009.16 1008.73
1014.51 1014.62 1014.76 1014.90 1015.00 1015.04 1015.02 1014.93 1014.77 1014.55 1014.30 1014.02 1013.76 1013.52 1013.33 1013.19 1013.10 1013.07 1013.07 1013.10 1013.14 1013.18 1013.19 1013.17 1013.12 1013.03 1012.92 1012.78 1012.63 1012.49 1012.35 1012.22 1012.09 1011.96 1011.83 1011.67 1011.48 1011.26 1010.98 1010.65 1010.28 1009.86 1009.41 1008.95
1014.48 1014.60 1014.74 1014.88 1014.98 1015.02 1015.00 1014.90 1014.74 1014.52 1014.27 1014.00 1013.74 1013.51 1013.33 1013.20 1013.13 1013.11 1013.13 1013.18 1013.24 1013.30 1013.34 1013.35 1013.33 1013.26 1013.17 1013.05 1012.92 1012.77 1012.62 1012.47 1012.32 1012.17 1012.01 1011.82 1011.60 1011.35 1011.05 1010.70 1010.30 1009.87 1009.40 1008.91
1014.49 1014.62 1014.75 1014.88 1014.97 1015.00 1014.97 1014.87 1014.70 1014.49 1014.24 1013.98 1013.74 1013.52 1013.35 1013.23 1013.17 1013.17 1013.21 1013.27 1013.35 1013.43 1013.49 1013.52 1013.52 1013.47 1013.39 1013.28 1013.14 1012.98 1012.81 1012.62 1012.44 1012.24 1012.03 1011.79 1011.53 1011.24 1010.90 1010.52 1010.11 1009.66 1009.18 1008.67
1014.57 1014.69 1014.81 1014.92 1014.99 1015.00 1014.96 1014.85 1014.68 1014.46 1014.22 1013.98 1013.74 1013.54 1013.38 1013.28 1013.23 1013.24 1013.29 1013.37 1013.46 1013.56 1013.64 1013.69 1013.70 1013.67 1013.60 1013.48 1013.34 1013.16 1012.96 1012.74 1012.50 1012.24 1011.97 1011.68 1011.37 1011.02 1010.65 1010.24 1009.81 1009.34 1008.85 1008.34
1014.73 1014.83 1014.93 1015.01 1015.05 1015.04 1014.97 1014.85 1014.68 1014.46 1014.23 1013.99 1013.76 1013.58 1013.43 1013.34 1013.31 1013.32 1013.39 1013.48 1013.59 1013.70 1013.80 1013.87 1013.90 1013.89 1013.82 1013.71 1013.56 1013.36 1013.14 1012.88 1012.59 1012.28 1011.95 1011.60 1011.23 1010.84 1010.42 1009.98 1009.52 1009.05 1008.55 1008.04
1014.92 1015.00 1015.08 1015.14 1015.15 1015.12 1015.03 1014.89 1014.71 1014.50 1014.27 1014.04 1013.83 1013.66 1013.53 1013.45 1013.43 1013.46 1013.53 1013.64 1013.77 1013.90 1014.01 1014.10 1014.15 1014.16 1014.11 1014.00 1013.85 1013.64 1013.40 1013.10 1012.78 1012.42 1012.04 1011.63 1011.20 1010.76 1010.30 1009.84 1009.36 1008.86 1008.36 1007.85
Thickness
5784 5792 5794 5792 5792 5793 5784 5776 5763 5765 5767 5775 5782 5785 5786 5785 5783 5782 5777 5775 5773 5771 5769 5767 5765 5763 5762 5758 5756 5753 5749 5746 5743 5741 5740 5737 5734 5732 5729 5726 5723 5720 5717 5714
5776 5788 5787 5783 5788 5790 5787 5783 5775 5770 5766 5780 5784 5784 5782 5780 5779 5775 5773 5772 5771 5768 5765 5762 5760 5758 5756 5753 5750 5747 5743 5739 5737 5735 5733 5730 5728 5725 5722 5720 5717 5714 5710 5707
5753 5770 5770 5756 5775 5779 5777 5779 5774 5763 5768 5775 5774 5775 5774 5774 5773 5771 5770 5769 5767 5764 5761 5759 5756 5754 5750 5748 5745 5741 5736 5733 5730 5728 5725 5723 5722 5718 5715 5712 5709 5706 5703 5700
5741 5748 5731 5755 5783 5783 5774 5773 5776 5774 5773 5774 5773 5773 5773 5773 5769 5768 5768 5767 5764 5760 5756 5754 5752 5749 5746 5742 5738 5734 5730 5726 5724 5721 5718 5715 5712 5709 5707 5704 5701 5698 5695 5693
5728 5725 5732 5757 5774 5774 5762 5757 5770 5768 5768 5768 5769 5765 5762 5768 5767 5764 5764 5762 5760 5757 5753 5749 5745 5742 5739 5734 5730 5726 5722 5719 5717 5714 5711 5707 5704 5702 5700 5697 5694 5691 5689 5687
5725 5722 5719 5745 5771 5779 5764 5741 5763 5765 5762 5761 5758 5740 5744 5759 5760 5759 5758 5756 5753 5750 5746 5741 5738 5736 5730 5726 5722 5719 5716 5714 5712 5709 5704 5701 5697 5695 5693 5690 5688 5685 5682 5680
5721 5718 5726 5753 5769 5769 5736 5733 5758 5761 5758 5756 5750 5747 5750 5754 5753 5751 5748 5746 5745 5742 5737 5733 5731 5728 5722 5719 5716 5714 5712 5708 5705 5702 5698 5694 5691 5688 5686 5683 5680 5678 5675 5673
5713 5708 5716 5753 5756 5745 5740 5751 5754 5756 5755 5752 5750 5750 5749 5747 5745 5743 5740 5737 5736 5731 5727 5725 5723 5720 5715 5711 5711 5708 5704 5700 5696 5694 5692 5689 5684 5681 5678 5674 5671 5668 5665 5663
5716 5717 5734 5746 5747 5750 5750 5747 5749 5750 5752 5750 5746 5743 5741 5737 5734 5734 5732 5729 5727 5723 5717 5715 5714 5712 5706 5704 5703 5699 5694 5690 5687 5685 5683 5680 5676 5672 5669 5666 5662 5658 5655 5652
5714 5722 5730 5736 5741 5745 5746 5745 5748 5748 5747 5744 5738 5735 5732 5728 5725 5724 5723 5721 5718 5714 5709 5707 5706 5704 5701 5698 5696 5691 5686 5681 5679 5676 5673 5671 5668 5665 5661 5657 5653 5650 5646 5643
5704 5713 5721 5728 5732 5736 5739 5741 5741 5740 5739 5736 5732 5727 5723 5718 5716 5715 5714 5712 5710 5706 5702 5700 5699 5696 5694 5691 5688 5682 5678 5674 5670 5667 5664 5661 5658 5656 5653 5651 5648 5644 5640 5637
5695 5707 5707 5713 5723 5729 5729 5729 5729 5727 5725 5727 5725 5718 5714 5711 5709 5707 5706 5704 5701 5699 5696 5693 5691 5688 5685 5683 5680 5675 5671 5667 5663 5660 5656 5652 5650 5647 5646 5644 5643 5641 5637 5633
5705 5710 5710 5714 5718 5721 5720 5720 5720 5719 5717 5716 5715 5711 5707 5704 5701 5699 5697 5695 5693 5691 5689 5686 5683 5681 5679 5677 5673 5668 5664 5661 5657 5654 5650 5646 5643 5639 5635 5635 5635 5633 5631 5628
5704 5705 5702 5705 5706 5712 5713 5713 5712 5711 5710 5710 5708 5704 5700 5697 5694 5691 5689 5688 5687 5685 5682 5680 5677 5675 5673 5670 5666 5662 5658 5656 5652 5648 5645 5642 5638 5634 5630 5627 5625 5624 5624 5622
5695 5697 5695 5698 5701 5702 5704 5703 5700 5699 5700 5700 5700 5697 5693 5690 5687 5685 5684 5683 5680 5677 5675 5673 5671 5668 5667 5665 5661 5657 5653 5650 5647 5643 5640 5636 5633 5630 5627 5623 5620 5618 5616 5615
5686 5688 5689 5690 5691 5693 5694 5693 5691 5690 5691 5691 5690 5689 5688 5685 5683 5680 5678 5676 5672 5669 5668 5667 5665 5664 5662 5659 5655 5652 5649 5647 5643 5638 5634 5630 5627 5624 5621 5618 5614 5612 5609 5608
5673 5672 5676 5679 5681 5684 5685 5685 5685 5685 5685 5685 5684 5683 5681 5678 5676 5672 5670 5669 5668 5665 5664 5662 5660 5660 5657 5654 5651 5647 5644 5641 5638 5633 5629 5625 5622 5619 5616 5613 5609 5606 5604 5603
5671 5672 5673 5675 5675 5676 5678 5679 5679 5678 5678 5679 5678 5676 5674 5671 5667 5666 5665 5663 5661 5659 5659 5658 5656 5654 5652 5650 5646 5642 5638 5635 5631 5628 5624 5620 5617 5614 5611 5608 5605 5602 5599 5597
5665 5666 5668 5671 5671 5671 5671 5670 5671 5671 5672 5671 5669 5668 5667 5666 5663 5661 5660 5657 5655 5652 5652 5653 5651 5648 5646 5644 5641 5637 5633 5630 5626 5622 5619 5616 5612 5609 5606 5603 5600 5597 5595 5592
5660 5662 5664 5665 5665 5665 5665 5665 5665 5665 5665 5664 5662 5661 5660 5659 5658 5655 5653 5651 5650 5649 5648 5647 5645 5642 5640 5638 5636 5632 5629 5625 5621 5617 5614 5610 5607 5604 5602 5599 5596 5593 5591 5588
5653 5655 5656 5657 5658 5660 5660 5660 5659 5658 5658 5657 5655 5654 5653 5652 5652 5650 5647 5643 5644 5645 5643 5641 5639 5636 5634 5632 5630 5626 5623 5619 5616 5612 5609 5605 5603 5600 5597 5594 5591 5588 5586 5583
5647 5648 5650 5651 5651 5651 5653 5654 5654 5653 5652 5650 5650 5649 5647 5644 5644 5643 5642 5640 5639 5638 5636 5634 5632 5631 5629 5626 5623 5620 5617 5614 5610 5607 5604 5601 5598 5595 5592 5589 5586 5583 5580 5578
5640 5642 5643 5644 5644 5645 5647 5647 5647 5647 5646 5645 5644 5642 5640 5639 5638 5636 5633 5635 5634 5633 5630 5628 5626 5624 5622 5619 5617 5614 5612 5609 5605 5602 5599 5596 5592 5589 5585 5582 5579 5577 5574 5571
5635 5637 5638 5639 5640 5639 5638 5640 5641 5641 5641 5640 5639 5639 5637 5635 5633 5633 5633 5631 5629 5627 5625 5622 5621 5618 5615 5612 5610 5608 5605 5603 5600 5597 5594 5591 5587 5584 5580 5577 5573 5570 5567 5565
5629 5631 5632 5632 5632 5632 5633 5634 5634 5634 5634 5634 5634 5634 5633 5632 5630 5629 5628 5626 5624 5621 5619 5617 5615 5612 5610 5607 5605 5602 5600 5597 5595 5592 5589 5585 5582 5579 5575 5571 5568 5564 5561 5559
5624 5624 5626 5627 5628 5628 5628 5628 5627 5627 5627 5626 5626 5627 5627 5627 5626 5624 5622 5620 5617 5615 5613 5611 5609 5607 5604 5602 5599 5597 5594 5591 5589 5586 5583 5580 5577 5573 5570 5566 5563 5559 5556 5553
5619 5620 5620 5621 5623 5623 5623 5623 5622 5622 5622 5621 5620 5621 5621 5620 5619 5617 5615 5613 5611 5609 5607 5605 5603 5601 5599 5596 5593 5591 5588 5585 5582 5580 5577 5574 5571 5567 5564 5561 5557 5554 5550 5547